Regional Weather Roundup
Issued by NWS New Orleans/Baton Rouge, LA

Home | Current Version | Previous Version | Text Only | Print | Product List | Glossary On
Versions: 1 2 3 4 5 6 7 8 9 10 11 12 13 14 15 16 17 18 19 20 21 22 23 24 25 26 27
000
ASUS44 KLIX 271213
RWRLIX
NEW ORLEANS REGIONAL WEATHER ROUNDUP
NATIONAL WEATHER SERVICE NEW ORLEANS LA
700 AM CDT MON MAR 27 2017

NOTE: "FAIR" INDICATES FEW OR NO CLOUDS BELOW 12,000 FEET WITH NO
      SIGNIFICANT WEATHER AND/OR OBSTRUCTIONS TO VISIBILITY.
      SKY/WX - SKY CONDITION AND SIGNIFICANT WEATHER.
      TMP - AIR TEMPERATURE.     DP    - DEWPOINT TEMPERATURE.
      RH  - RELATIVE HUMIDITY.   PRES  - PRESSURE.
      HI  - HEAT INDEX.          WCI   - WIND CHILL INDEX.

*  THESE STATIONS ARE NOT NWS OR FAA STATIONS AND ARE NOT UNDER
   NWS QUALITY CONTROL.

LAZ038-040-048-061>063-065>067-069-271300-
SOUTHEAST LOUISIANA

CITY           SKY/WX    TMP DP  RH WIND       PRES   REMARKS
N.O. INTL ARPT MOCLDY    70  68  93 S6        29.99R
6HR MIN TEMP:  70; 6HR MAX TEMP:  72;

N.O. LAKEFRONT CLOUDY    71  69  93 SE8       29.99S
6HR MIN TEMP:  71; 6HR MAX TEMP:  73;

N.O. DOWNTOWN*   N/A     72  69  90 VRB3      30.00R
6HR MIN TEMP:  72; 6HR MAX TEMP:  73;

RESERVE*         N/A     69  67  94 SE5       29.98R
6HR MIN TEMP:  69; 6HR MAX TEMP:  71;

SLIDELL        CLOUDY    70  68  93 SE6       29.99S
6HR MIN TEMP:  69; 6HR MAX TEMP:  72;

BATON ROUGE    CLOUDY    67  66  97 E5        29.97S FOG
6HR MIN TEMP:  67; 6HR MAX TEMP:  69;

BOOTHVILLE     CLOUDY    68  68 100 E3        30.01R
6HR MIN TEMP:  68; 6HR MAX TEMP:  72;

BELLE CHASSE   CLOUDY    73  69  87 SE3       29.99R
BOGALUSA*      NOT AVBL
GALLIANO*      PTSUNNY   71  67  88 SE5       29.99R
6HR MIN TEMP:  71; 6HR MAX TEMP:  73;

NEW ROADS*       N/A     67  67  99 SE6       29.96S FOG
6HR MIN TEMP:  66; 6HR MAX TEMP:  68;

GONZALES*      PTSUNNY   68  67  98 CALM      29.97R
6HR MIN TEMP:  65; 6HR MAX TEMP:  69;

HAMMOND*       PTCLDY    68  64  88 CALM      29.99R
HOUMA*         MOCLDY    70  66  88 S3        29.98S
PORT FOURCHON* SUNNY     73  70  88 S10       29.99S

$$

MSZ070-080>082-271300-
SOUTHERN MISSISSIPPI

CITY           SKY/WX    TMP DP  RH WIND       PRES   REMARKS
MCCOMB         CLOUDY    69  66  90 S6        29.99S
6HR MIN TEMP:  67; 6HR MAX TEMP:  69;

GULFPORT       CLOUDY    72  70  93 S6        30.01R
6HR MIN TEMP:  72; 6HR MAX TEMP:  73;

BILOXI         CLOUDY    71  69  93 SW9       30.02R
6HR MIN TEMP:  71; 6HR MAX TEMP:  72;

PASCAGOULA     CLOUDY    69  66  90 S5        30.03R
6HR MIN TEMP:  69; 6HR MAX TEMP:  71;


$$

COASTAL OBSERVATIONS
LAKE AND NEARSHORE STATIONS

STATION/POSITION TIME  TEMP    WIND        PRES    WAVE
                       AIR SEA DIR/SP/G            HT/PER
                 (UTC) (F)     (DEG/KT/KT) (MB)    (FT/S)
PASCAGOULA       1148   71     170/  6/  9 1016.3
WAVELAND YACHT   1148   72 73  200/  6/  9 1015.9
GRAND ISLE       1148   72 74  180/  5/  6 1015.5
SOUTHWEST PASS   1148          150/  8/ 12   N/A
NEW CANAL        1148   71 71  140/  2/  4 1015.3
SHELL BEACH      1148   71 73  160/  6/  7 1016.1

OFFSHORE STATIONS

STATION/POSITION TIME  TEMP    WIND        PRES    WAVE
                       AIR SEA DIR/SP/G            HT/PER
                 (UTC) (F)     (DEG/KT/KT) (MB)    (FT/S)
64 S DAUPHIN ISL 1150   72 73  160/  8/ 12 1017.0    3/ 5

$$





USA.gov is the U.S. government's official web portal to all federal, state and local government web resources and services.